Погода в Бырдалыке

Погода в Бырдалыке : погода сейчас, прогноз погоды и архив. Всё, что Вы хотите узнать о погоде в Бырдалыке!

Хотите узнать прогноз погоды в Бырдалыке? Тогда Вам сюда: Погода в Бырдалыке

Поиск расширенной информации на нашем сайте:

Другие новости

Новости СМИ2

Главная страница сайта

Новости сайта

03.07.2017

Напоминаем, что на нашем специализированном сайте Метеоцентр.Азия вы можете получить высокодетализированные автоматические прогнозы погоды по пунктам России, СНГ и мира в авиационном формате (включающие направление и скорость ветра, видимость, явления погоды, количество и форму облачности, нижнюю и верхнюю границу облачности).


Погода в Бырдалыке - сегодня

Время (UTC), дата Ветер
(°,м/с) 
Видим.   Явления Облачность Т
(°С)
Тd
(°С)
f(%) Тe
(°С)
Pmin
(гПа)
dP
(гПа)
Po
(мм)
O2
(г/м3)
Тmin Tmax R s Состояние
почвы
21 23.05.18 050 (СВ) 10 км    ясно 
+24.4 +1.3 22 +24  1015.7  -0.2  743  275           
00 24.05.18 050 (СВ) 10 км    ясно 
+21.4 +1.5 27 +21  1015.8  -0.1  743  277           
03 24.05.18 050 (СВ) 10 км    ясно 
+23.1 +1.9 25 +23  1016  0.3  743  276           
06 24.05.18 020 (С) 10 км    ясно 
+29.8 +6.1 22 +30  1015.4  743  269  +21.2         
09 24.05.18 360 (С) 10 км    ясно 
+32.6 +4.8 17 +33  1013.1  -1.9  742  266           
12 24.05.18 020 (С) 10 км    ясно 
+33.2 +1.1 13 +33  1011.3  -1.8  741  266           
15 24.05.18 360 (С) 10 км    ясно 
+31 +0.2 14 +31  1010.9  -0.6  740  268    +33.4       
18 24.05.18 050 (СВ) 10 км    ясно 
+25 -1.4 17 +25  1011.8  0.4  741  273    +33.4       
21 24.05.18 360 (С) 10 км    ясно 
+20 +0.6 27 +20  1010.7  -1.5  739  277           
00 25.05.18 360 (С) 10 км    ясно 
+18.2 +0.9 31 +19  1009.6  -1.1  739  279           
03 25.05.18 050 (СВ) 10 км    ясно 
+21.3 +4.6 33 +21  1010.2  0.7  751  280           
06 25.05.18 180 (Ю) 10 км    ясно 
+25 +8.5 35 +25  1010.2  0.3  739  271  +18         
09 25.05.18 290 (З) 10 км    ясно 
+31.2 +4.3 18 +31  1008.8  -0.8  739  266           
12 25.05.18 160 (Ю) 10 км    ясно 
+33.1 -0.5 12 +33  1007.7  -0.9  738  265           
15 25.05.18 250 (З) 10 км    ясно 
+29.8 +10.6 30 +32  1008.1  0.2  738  266    +33.4       
18 25.05.18 250 (З) 10 км    ясно 
+21.4 +10.6 50 +24  1008.8  738  274    +33.4       
21 25.05.18 360 (С) 10 км    ясно 
+22 +4 31 +22  1008.3  -0.5  738  275           
00 26.05.18 тихо ()   10 км    ясно 
+16.4 +9 62 +17  1008.3  -0.4  738  279           
03 26.05.18 200 (Ю) 10 км    ясно 
+21.2 +9.7 48 +22  1008.7  0.8  738  274           
06 26.05.18 230 (ЮЗ) 10 км    ясно 
+32.8 +7.1 20 +33  1007.4  -0.4  738  264  +16.2         
09 26.05.18 230 (ЮЗ) 10 км    ясно 
+36.7 +2.3 12 +37  1006.4  -0.7  737  262           
12 26.05.18 160 (Ю) 10 км    ясно 
+36.1 -1.4 9 +36  1005.3  -1.2  736  262           
15 26.05.18 160 (Ю) 10 км    ясно 
+31.6 +12.6 31 +37  1005.4  -0.2  736  264    +36.9       
18 26.05.18 160 (Ю) 10 км    ясно 
+25.8 +7.3 31 +26  1006.3  0.4  737  270    +36.9       
21 26.05.18 140 (ЮВ) 10 км    ясно 
+20.6 +7.7 43 +21  1006.8  0.1  737  275           
Время (UTC), дата Ветер
(°,м/с) 
Видим.   Явления Облачность Т
(°С)
Тd
(°С)
f(%) Тe
(°С)
Pmin
(гПа)
dP
(гПа)
Po
(мм)
O2
(г/м3)
Тmin Tmax R s Состояние
почвы

Для получения пояснительной информации подведите курсор к названию столбца.

ПОГОДА в Бырдалыке - архив

Всё, что Вы хотите узнать о погоде в Бырдалыке - удобно и подробно!

Выберите нужную дату (начиная с 1 января 2015* года) и нажмите кнопку "Найти".
Будут отображены архивные сводки погоды по пункту Бырдалык, начиная с указанной даты.


Отображать данные в формате CSV (для использования в таблицах Excel)


Внимание! Наш архив погоды предназначен исключительно для личного некоммерческого использования в познавательных целях. Если Вам необходимы официальные справки о состоянии погоды (для производственных, юридических, коммерческих и т.п. целей), обращайтесь в органы Росгидромета.

*Примечание: данная дата относится к архиву по метеостанциям СССР (Россия, СНГ, Балтия).
Архив по метеостанциям Зарубежной Европы и Азии (кроме Китая) хранится 10 дней, по другим регионам земного шара (Китай, Африка, Америка, Австралия, Океания) - 1 день.

Бырдалык - район местоположения метеостанции


Название, широта, долгота, высота метеостанции:
Бырдалык 38.5°ш. 64.4°д. 212 м над ур. моря [Туркменистан]

Дополнительная информация

В oтличие oт бoльшинства пoгoдных сайтoв мы публикуем пoдрoбную метеoинфoрмацию в детальнoм прoфессиoнальнoм фoрмате.

Характеристики температуры и влажнoсти вoздуха измеряются на высoте 2 м в тени вдали oт зданий и деревьев.
Скoрoсть ветра измеряется на высoте 10 м (на урoвне рoста челoвека скoрoсть ветра ниже в 1.5-2 раза). Если метеoстанция нахoдится в гoрoде или в лесу, тo скoрoсть ветра занижена на 2-4 м/с пo сравнению с oткрытым местoм. Скoрoсть ветра над акватoриями крупных рек и oзёр, а также на вершинах хoлмoв на 2-5 м/с выше, чем в oбычных услoвиях.
Атмoсфернoе давление в разных тoчках местнoсти мoжет значительнo oтличаться oт давления на метеoстанции, в зависимoсти oт услoвий рельефа (при пoдъёме на 10 м давление пoнижается примернo на 1 мм рт.ст.).